Imperial, CA

8:30 PM PDT on August 23, 2016 (GMT -0700)
Imperial County

Weather History for KIPL - May, 2013

Change the Weather History Date:

Tuesday, May 7, 2013

  Actual Average Record
Temperature  
Mean Temperature 68 °F -  
Max Temperature 77 °F 90 °F 105 °F (1997)
Min Temperature 62 °F 60 °F 45 °F (1964)
Cooling Degree Days 4    
Growing Degree Days 18 (Base 50)    
Moisture  
Dew Point 45 °F    
Average Humidity 44    
Maximum Humidity 60    
Minimum Humidity 29    
Precipitation  
Precipitation 0.00 in - - ()
Sea Level Pressure  
Sea Level Pressure 29.93 in    
Wind  
Wind Speed 16 mph (West)    
Max Wind Speed 26 mph    
Max Gust Speed 36 mph    
Visibility 10 miles    
Events      
Averages and records for this station are not official NWS values.
T = Trace of Precipitation, MM = Missing Value Source: NWS Daily Summary

Daily Weather History Graph

Daily Weather History Graph

Search for Another Location

Airport or City:

Trip Planner

Search our weather history database for the weather conditions in past years. The results will help you decide how hot, cold, wet, or windy it might be!

Date:

Astronomy

May. 07, 2013 Rise Set
Actual Time 5:49 AM PDT 7:28 PM PDT
Civil Twilight 5:22 AM PDT 7:55 PM PDT
Nautical Twilight 4:50 AM PDT 8:27 PM PDT
Astronomical Twilight 4:16 AM PDT 9:01 PM PDT
Moon 4:18 AM PDT (5/7) 5:37 PM PDT (5/7)
Length of Visible Light 14h 32m
Length of Day
13h 39m
Waning Crescent, 5% of the Moon is Illuminated
May 7
Waning Crescent
May 9
New
May 17
First Quarter
May 24
Full
May 31
Last Quarter

Hourly Weather History & Observations

Time (PDT) Temp. Dew Point Humidity Pressure Visibility Wind Dir Wind Speed Gust Speed Precip Events Conditions
12:53 AM 64.9 °F 48.9 °F 56% 29.92 in 10.0 mi WNW 16.1 mph 23.0 mph N/A   Clear
1:53 AM 64.9 °F 50.0 °F 58% 29.91 in 10.0 mi West 19.6 mph 24.2 mph N/A   Clear
2:53 AM 64.9 °F 50.0 °F 58% 29.91 in 10.0 mi West 15.0 mph - N/A   Clear
3:53 AM 64.0 °F 50.0 °F 60% 29.91 in 10.0 mi West 13.8 mph 19.6 mph N/A   Clear
4:53 AM 64.0 °F 48.9 °F 58% 29.91 in 10.0 mi West 15.0 mph 26.5 mph N/A   Clear
5:53 AM 63.0 °F 46.9 °F 56% 29.93 in 10.0 mi WNW 8.1 mph - N/A   Clear
6:53 AM 64.9 °F 46.0 °F 50% 29.95 in 10.0 mi West 20.7 mph 28.8 mph N/A   Clear
7:53 AM 66.9 °F 44.1 °F 44% 29.96 in 10.0 mi West 19.6 mph 27.6 mph N/A   Clear
8:53 AM 70.0 °F 43.0 °F 38% 29.98 in 10.0 mi WSW 16.1 mph - N/A   Clear
9:53 AM 71.1 °F 45.0 °F 39% 29.99 in 10.0 mi West 11.5 mph - N/A   Mostly Cloudy
10:53 AM 71.1 °F 46.0 °F 41% 29.98 in 10.0 mi WNW 12.7 mph - N/A   Overcast
11:53 AM 71.1 °F 48.9 °F 45% 29.97 in 10.0 mi West 17.3 mph 26.5 mph N/A   Overcast
12:53 PM 75.0 °F 46.0 °F 36% 29.96 in 10.0 mi West 21.9 mph 31.1 mph N/A   Clear
1:53 PM 75.9 °F 44.1 °F 32% 29.94 in 10.0 mi West 19.6 mph 31.1 mph N/A   Clear
2:53 PM 75.9 °F 43.0 °F 31% 29.92 in 10.0 mi West 26.5 mph 35.7 mph N/A   Clear
3:53 PM 75.9 °F 41.0 °F 29% 29.91 in 10.0 mi WSW 23.0 mph 28.8 mph N/A   Clear
4:53 PM 75.0 °F 43.0 °F 32% 29.89 in 10.0 mi West 18.4 mph 26.5 mph N/A   Clear
5:53 PM 73.9 °F 42.1 °F 32% 29.89 in 10.0 mi WSW 17.3 mph 25.3 mph N/A   Clear
6:53 PM 71.1 °F 42.1 °F 35% 29.89 in 10.0 mi West 13.8 mph 24.2 mph N/A   Clear
7:53 PM 68.0 °F 44.1 °F 42% 29.91 in 10.0 mi WSW 18.4 mph 26.5 mph N/A   Clear
8:53 PM 64.9 °F 43.0 °F 45% 29.92 in 10.0 mi West 13.8 mph - N/A   Clear
9:53 PM 64.9 °F 43.0 °F 45% 29.93 in 10.0 mi West 16.1 mph - N/A   Clear
10:53 PM 62.1 °F 42.1 °F 48% 29.95 in 10.0 mi West 10.4 mph - N/A   Clear
11:53 PM 62.1 °F 43.0 °F 50% 29.96 in 10.0 mi West 11.5 mph - N/A   Clear